Dewpoint
40 41 42 43 44 45 48 52 56 57 56 57 56 54 50 48 46 45 43 42 41 41 42 41 40 41 41 41 41 41 41 40 41 40 42 41 43 46 44 54 49 49 51
38 41 41 42 42 43 44 47 52 55 57 57 53 50 48 46 45 44 42 41 39 38 38 39 39 39 39 39 40 41 40 39 39 39 40 36 38 38 41 42 40 41 43
38 39 41 42 43 43 45 45 47 48 47 47 47 47 47 46 44 42 40 38 37 34 35 36 35 35 36 36 37 36 37 36 36 37 36 36 35 40 39 40 39 40 41
39 40 41 42 44 46 47 46 46 46 46 47 46 44 42 41 40 38 37 35 33 29 27 29 29 30 30 31 32 29 33 35 33 34 33 36 35 37 37 36 38 36 38
40 41 42 43 44 46 47 45 44 43 43 43 42 40 39 38 36 34 32 30 29 26 23 23 25 24 25 27 28 28 30 31 29 30 33 34 35 35 36 34 31 33 31
40 41 43 43 44 46 46 44 42 41 41 40 38 38 36 32 31 28 24 21 19 21 20 20 21 22 23 23 24 25 30 30 27 28 30 33 32 31 28 26 28 29 29
40 41 42 42 43 44 44 41 40 38 37 36 34 32 31 28 25 21 18 16 13 17 18 20 18 18 20 20 21 22 27 27 26 28 30 29 25 24 22 24 29 30 33
40 41 42 43 43 43 42 40 38 36 33 31 28 25 24 21 17 16 14 12 12 14 17 17 16 16 16 17 17 19 21 22 22 23 26 26 23 24 25 30 34 34 33
40 41 42 42 42 41 39 38 37 35 31 27 22 19 16 16 15 13 13 13 12 10 13 15 14 15 15 15 16 14 16 17 19 21 24 24 23 25 27 27 31 30 30
40 40 41 42 40 38 38 37 34 31 27 22 17 14 11 10 11 11 11 12 11 12 13 13 12 13 12 12 13 14 14 14 17 18 20 22 22 24 22 22 22 24 26
39 40 40 41 39 37 36 33 32 29 23 18 13 12 10 9 7 8 9 10 11 11 11 10 11 10 10 10 10 11 12 14 16 18 18 20 22 21 19 21 21 21 23
40 39 40 40 36 34 33 31 30 27 21 14 10 9 10 9 7 7 9 8 8 10 10 10 9 8 9 10 9 10 11 14 15 16 18 18 15 20 19 20 21 23 23
39 39 40 38 34 32 30 28 26 22 16 11 9 8 9 8 8 9 9 9 9 10 9 9 9 8 11 10 10 8 12 15 16 17 18 18 18 19 20 20 21 24 23
39 39 40 37 33 30 27 24 22 19 13 10 9 10 9 10 11 11 11 11 10 10 10 10 9 11 10 11 8 13 16 17 17 19 20 19 19 19 23 22 24 25 27
38 39 39 37 33 29 26 23 20 17 10 8 9 12 12 12 12 12 12 12 12 12 11 11 11 11 11 5 16 19 20 20 19 20 19 19 23 26 26 23 27 28 27
37 39 39 37 33 29 26 23 18 13 10 8 10 12 12 13 13 13 12 12 13 12 12 11 12 15 7 20 24 25 22 21 20 19 19 18 22 22 28 29 30 28 29
38 39 39 37 32 28 26 22 14 9 8 9 9 11 12 12 13 12 11 12 12 13 13 11 11 9 10 20 25 27 23 21 19 18 18 17 16 25 25 27 28 32 33
37 40 39 36 31 27 24 16 10 8 9 8 9 10 12 11 11 11 10 11 11 11 11 11 10 10 10 21 25 27 22 19 18 18 18 18 22 25 24 24 33 27 23
36 39 38 34 28 25 20 13 9 8 7 8 9 10 10 10 9 9 10 11 11 12 11 10 11 10 10 21 24 25 20 18 18 18 19 23 24 25 27 33 30 24 22
37 36 32 28 26 20 13 12 8 5 5 8 9 11 11 10 8 10 11 12 12 10 10 10 9 15 12 21 25 24 19 18 19 20 23 27 23 28 32 24 22 24 21
34 30 28 25 21 13 11 10 6 4 8 10 11 10 9 9 9 11 12 13 11 10 9 9 9 12 16 18 25 26 21 21 24 26 24 22 30 30 25 24 20 22 22
30 27 24 20 14 12 10 7 5 8 10 11 10 9 8 8 10 15 15 13 10 9 8 9 12 15 16 22 23 26 26 26 25 23 22 29 26 23 23 23 24 24 23
28 25 23 18 14 11 8 6 7 10 10 9 8 7 7 8 11 13 13 11 9 9 10 11 14 15 16 17 24 25 27 27 22 22 32 25 22 21 21 22 22 22 20
29 25 22 19 14 11 10 8 9 10 9 7 6 6 8 11 11 10 10 11 10 11 12 14 15 17 17 18 19 22 24 24 24 31 23 20 19 20 20 18 18 19 20
29 25 23 18 15 11 8 9 10 10 8 6 5 7 8 11 11 9 10 12 14 17 18 18 19 19 19 20 24 24 20 23 26 22 18 15 14 17 16 17 18 19 19
27 23 20 18 12 8 8 9 10 10 8 6 7 9 11 11 9 9 11 17 20 22 22 23 22 20 24 25 25 24 25 28 24 18 14 16 18 18 17 17 18 19 20
Lifted_Index
6 6 7 7 7 7 7 6 4 3 2 2 3 4 4 4 4 5 7 8 10 11 12 12 13 13 13 13 13 13 13 13 13 13 12 12 11 10 9 8 8 8 7
6 6 7 7 8 8 8 7 6 4 3 3 4 5 5 5 6 7 9 10 11 12 12 13 13 13 13 13 14 14 14 14 14 14 13 13 12 12 11 11 10 9 9
7 7 7 8 8 8 8 8 7 7 6 6 7 7 7 7 8 9 11 12 12 12 13 13 13 13 14 14 15 16 16 16 16 16 15 15 14 14 14 13 12 11 11
7 8 8 8 8 9 9 8 8 8 9 9 9 9 9 9 10 11 11 12 12 12 13 14 14 15 16 17 18 19 18 18 18 18 17 16 15 15 15 14 14 13 13
8 8 8 8 9 9 9 8 8 9 9 9 9 9 9 10 11 11 11 11 12 13 14 15 16 18 19 20 20 20 20 19 19 19 18 17 16 15 16 16 16 16 15
8 8 8 8 8 8 8 8 8 9 9 9 9 9 10 10 11 11 11 11 12 13 15 17 18 20 21 21 21 21 21 20 20 19 18 17 17 17 17 18 17 17 17
8 8 8 8 8 8 8 8 8 8 9 9 9 9 10 10 10 10 11 12 13 14 16 18 20 21 21 22 22 21 21 20 20 20 19 19 19 19 19 18 17 17 17
8 8 8 7 7 7 7 8 8 8 9 9 9 10 10 10 10 11 12 13 15 17 19 20 21 22 22 22 21 21 21 21 21 20 20 20 20 20 19 18 17 16 16
8 8 7 7 7 7 7 8 8 8 9 9 9 10 10 11 11 12 13 15 17 19 21 21 22 22 22 22 21 21 21 21 21 21 21 20 20 20 19 18 16 15 15
7 7 7 6 6 7 7 7 8 8 9 9 10 11 11 11 12 13 15 17 19 20 21 21 21 21 21 21 21 21 21 21 21 21 21 21 20 19 19 18 16 15 14
7 7 6 6 6 6 7 7 7 8 9 10 11 11 12 12 13 14 16 18 20 21 21 21 21 21 21 21 21 21 21 21 22 22 21 21 20 19 18 17 16 15 14
6 6 5 5 5 6 6 7 7 8 10 11 12 12 12 13 14 15 17 19 21 21 22 21 21 21 21 21 21 21 21 22 22 21 21 20 18 17 16 16 15 14 14
5 5 5 5 5 6 6 7 8 9 11 12 12 12 12 13 14 16 18 20 21 21 21 21 21 20 20 20 21 21 21 22 21 20 19 18 17 16 15 15 14 13 12
4 4 5 5 5 6 6 7 8 10 11 12 12 12 13 14 15 17 20 21 21 21 21 20 20 20 20 20 21 21 21 21 20 19 17 16 15 15 15 14 13 12 12
4 5 5 5 5 6 6 7 9 10 12 12 12 12 13 15 17 19 20 21 21 20 20 20 19 19 20 20 21 21 21 20 18 17 15 15 15 15 14 13 12 12 11
5 5 6 6 6 6 7 8 9 11 11 11 11 12 14 15 18 20 21 21 20 20 19 19 19 19 20 20 21 21 20 18 16 15 14 14 14 14 13 12 12 11 11
5 6 6 6 6 6 7 8 9 11 11 11 12 13 14 17 19 20 21 20 20 19 19 19 19 19 20 20 20 19 18 16 15 14 14 14 14 13 13 12 12 12 11
6 6 6 7 7 7 8 9 10 11 11 11 12 14 16 18 20 20 20 20 19 19 19 19 19 20 20 20 19 18 16 15 14 14 14 14 13 12 12 12 12 12 12
7 7 7 7 7 8 8 9 10 11 11 11 13 15 18 19 20 20 20 19 19 19 19 19 20 20 20 19 18 16 15 14 14 14 14 13 12 12 12 12 12 12 12
8 8 8 8 8 9 9 10 10 11 11 13 15 17 19 20 20 20 19 19 19 19 19 20 20 20 19 18 16 15 14 14 14 13 13 12 12 11 11 12 12 13 13
10 10 10 10 9 10 10 10 11 11 13 15 17 19 20 20 20 20 19 19 19 19 19 20 20 19 18 16 15 14 13 13 13 13 12 12 11 12 12 12 13 13 14
11 11 11 10 10 10 10 11 11 13 14 16 18 20 20 20 20 19 19 19 19 19 19 19 18 17 16 15 14 13 13 13 13 13 12 12 12 13 13 13 14 14 14
12 12 11 11 11 11 11 12 13 15 16 18 19 20 20 20 19 19 19 19 19 19 18 17 17 16 15 14 14 13 13 13 13 13 13 13 14 14 14 14 14 15 15
12 12 12 12 12 12 13 14 15 17 18 19 20 20 19 19 19 19 19 19 19 18 17 16 16 15 14 14 14 13 13 13 13 13 14 14 15 15 15 15 15 15 15
12 12 12 12 12 13 14 16 18 19 20 20 20 19 19 18 18 19 19 19 19 18 17 16 15 14 14 14 14 14 14 14 14 14 15 15 16 15 15 15 16 16 16
12 12 12 12 13 14 15 17 19 20 20 20 20 19 18 18 18 18 18 19 19 17 16 15 15 14 14 14 14 14 14 14 14 15 16 16 16 16 16 16 16 16 16